Wind_Speed
18 18 19 19 19 20 21 22 22 23 24 25 25 25 26 26 26 25 24 23 23 23 22 19 18 16 15 14 14 13 13 13 12 12 11 11 10 11 11 11 11 11 12
19 18 18 18 18 18 19 21 22 23 24 25 25 25 26 27 27 26 25 25 25 24 24 22 20 18 16 15 15 15 14 14 13 13 12 12 12 11 11 11 11 11 11
19 18 18 18 18 17 17 19 20 21 23 24 25 26 26 26 27 28 27 25 26 26 25 23 21 20 19 17 16 16 16 16 15 14 14 13 13 12 12 12 12 12 12
19 18 17 17 17 17 17 17 18 20 21 22 23 25 26 26 26 28 27 26 26 26 26 25 23 22 20 19 18 18 17 17 16 16 15 14 14 13 13 13 12 13 13
19 17 16 16 16 16 16 16 17 18 19 21 22 23 25 26 26 27 28 26 27 27 27 26 24 23 22 21 20 19 19 18 18 17 16 16 15 15 15 14 13 13 13
18 16 15 14 14 14 14 15 15 16 18 19 20 21 23 24 24 25 27 26 26 27 27 27 25 24 23 22 22 21 20 20 19 19 18 18 17 16 16 15 15 14 14
17 15 13 13 13 13 13 14 14 15 16 17 19 20 22 23 24 24 26 28 27 28 28 27 27 25 24 24 23 22 22 21 20 20 19 19 19 18 18 17 17 16 16
17 15 13 12 11 11 11 11 11 13 14 16 18 19 21 23 23 24 24 27 27 28 28 27 28 27 25 25 24 24 23 23 22 22 21 20 20 19 19 19 18 18 17
16 15 13 11 10 10 10 10 9 10 12 14 16 18 20 21 22 23 24 25 28 28 29 28 28 28 27 26 26 25 25 24 24 23 23 22 21 21 21 20 19 19 19
17 15 14 12 10 9 9 8 8 9 10 12 14 16 17 19 20 21 22 24 26 28 29 29 29 29 28 28 27 26 26 26 25 25 24 24 23 22 22 21 21 20 20
17 15 14 12 11 10 8 7 7 7 9 10 12 14 16 16 18 19 21 23 25 26 27 28 29 30 29 29 29 28 27 27 27 27 26 26 25 25 24 23 22 22 22
17 16 14 12 11 9 8 7 6 6 7 9 11 13 14 15 17 19 19 21 23 25 26 27 28 29 31 30 29 28 28 28 28 28 28 27 27 26 26 25 24 24 23
17 17 15 13 11 9 8 6 5 4 5 7 9 11 13 14 16 18 19 20 20 23 24 25 27 29 30 31 30 29 29 30 29 29 29 29 28 28 27 26 26 25 25
18 17 15 13 11 9 8 6 5 4 4 5 7 9 10 12 14 15 18 19 20 21 22 23 25 28 29 29 30 30 29 30 30 30 30 30 30 29 29 28 27 27 27
19 18 16 14 11 9 8 6 5 4 3 3 4 6 7 9 10 13 15 17 17 18 20 23 25 26 28 29 30 30 30 30 30 30 30 30 30 30 30 29 29 28 28
19 19 17 15 12 10 9 7 5 4 3 2 3 4 6 7 8 10 12 14 15 17 19 20 22 25 27 27 29 30 30 30 29 30 30 30 30 30 30 31 30 30 30
19 18 17 16 13 11 9 8 6 4 3 3 3 4 5 6 6 8 11 12 13 14 16 18 20 22 24 26 27 27 28 29 30 30 30 30 30 30 30 30 30 30 30
19 18 17 16 15 13 10 9 7 5 3 3 3 4 5 5 6 7 9 11 12 12 13 14 17 19 22 24 25 25 26 27 28 29 30 30 29 29 30 29 30 31 31
19 18 17 16 15 14 12 10 8 6 4 3 3 4 4 5 6 7 8 10 11 12 14 14 16 17 19 22 23 24 24 25 26 27 28 29 29 29 30 30 30 31 31
18 17 17 16 15 14 12 11 9 8 6 5 4 4 5 6 6 7 9 10 11 12 13 13 15 17 17 19 21 22 24 25 25 26 27 28 28 29 30 31 31 31 32
18 17 17 16 15 14 13 12 11 9 7 6 5 5 5 6 7 8 9 9 10 11 12 13 14 16 17 18 20 21 23 24 25 26 27 28 29 30 31 31 32 33 33
17 17 16 16 15 14 13 12 12 11 9 8 7 6 6 6 7 8 9 10 10 11 12 13 14 16 17 17 18 19 21 22 24 25 26 27 28 29 30 31 33 33 34
16 17 16 16 15 14 13 12 12 11 10 9 8 7 7 7 7 7 8 9 10 11 12 12 13 14 16 17 17 18 20 20 21 22 23 24 26 28 29 31 32 32 33
16 16 16 16 15 15 14 13 12 12 11 10 9 9 9 9 8 9 10 10 10 11 12 12 12 13 14 16 17 18 19 20 21 22 22 23 25 26 27 28 30 31 32
16 16 16 16 15 15 14 14 13 13 12 12 11 10 10 10 10 10 10 11 11 12 12 13 14 14 14 15 16 17 19 20 21 22 23 24 25 26 26 27 28 29 31
16 16 16 16 16 15 15 15 14 14 14 13 13 12 12 12 12 11 11 12 12 13 14 14 15 15 15 15 16 17 18 20 21 22 23 24 24 25 26 27 28 29 30
Wind_Direction
301 295 289 284 278 271 266 262 258 252 249 244 240 237 233 231 230 227 227 227 226 222 222 222 220 219 217 214 211 207 203 199 196 194 190 186 184 181 179 176 179 178 176
305 299 293 286 279 274 268 264 258 253 250 245 241 236 232 230 228 228 227 228 225 221 218 218 219 219 218 217 214 210 207 204 202 200 199 197 195 193 193 192 191 191 191
309 301 295 289 282 276 271 265 259 255 251 247 240 236 232 230 229 227 225 226 224 220 217 217 219 220 219 218 216 214 211 209 208 206 205 204 203 203 202 202 202 203 203
314 306 298 291 285 279 273 267 260 254 251 246 241 236 232 231 228 227 226 225 222 219 218 218 219 219 220 219 216 215 215 213 212 211 210 209 209 208 206 207 209 210 211
320 312 301 293 289 283 276 269 262 255 249 244 240 235 231 230 228 227 226 226 223 221 219 217 218 219 220 219 218 217 218 216 215 214 214 214 214 214 213 213 216 217 219
326 318 306 298 292 285 279 272 264 256 248 243 237 234 230 227 227 226 224 225 224 221 219 219 220 219 219 220 221 220 219 218 217 217 218 218 219 220 219 219 221 223 226
333 328 318 307 299 291 284 276 266 255 247 241 234 231 228 225 226 225 224 223 224 222 221 222 223 222 222 222 222 222 221 220 220 220 221 221 223 225 225 226 227 228 230
336 332 328 319 309 299 292 282 269 254 246 240 234 230 226 223 224 224 224 223 222 221 220 222 224 224 224 223 223 223 223 223 224 224 224 225 226 228 229 230 231 231 233
341 338 335 330 321 309 300 289 273 256 247 240 234 229 227 226 225 223 223 222 222 222 220 222 223 224 225 224 224 226 226 227 228 227 227 228 229 231 231 233 234 235 237
345 343 340 335 328 320 312 298 277 260 249 241 233 227 225 227 227 226 224 223 224 223 222 224 224 225 225 225 225 226 228 229 229 229 230 231 232 233 234 235 236 238 240
349 347 344 339 333 323 315 303 281 263 251 242 233 229 226 226 227 227 224 224 224 223 224 224 225 226 226 226 226 227 230 231 232 232 233 234 235 236 236 236 238 241 244
352 350 347 343 340 333 323 312 292 271 253 242 234 230 227 226 230 229 226 226 225 225 226 226 227 226 225 226 227 229 231 231 233 234 235 236 237 236 237 238 241 244 246
356 354 352 349 346 343 337 326 309 286 258 244 237 233 229 230 231 230 228 228 228 229 229 230 230 230 230 231 231 233 234 233 234 236 236 237 238 238 239 241 243 245 246
0 358 357 354 351 347 343 341 332 307 269 251 242 238 232 235 232 233 231 229 231 232 232 233 233 232 233 234 234 235 237 236 237 236 237 237 239 241 243 244 244 245 248
4 3 2 0 357 353 347 342 338 327 298 261 241 237 234 234 234 232 230 230 232 234 234 235 234 234 234 234 235 236 238 238 237 237 237 238 240 242 244 244 245 247 249
6 7 6 5 2 0 358 355 348 336 319 285 255 247 237 235 236 231 230 233 236 236 236 237 237 238 236 237 236 238 239 239 238 237 237 239 241 242 245 246 247 249 250
5 6 7 9 7 4 2 360 354 341 321 301 277 261 258 254 243 234 234 235 237 238 239 240 238 238 237 238 239 239 239 240 240 239 239 242 243 243 245 246 248 250 251
5 5 6 9 11 10 6 3 360 350 335 312 289 273 267 262 251 240 238 239 240 242 245 245 241 240 238 238 239 239 239 238 240 242 244 244 244 246 245 247 249 251 254
6 6 7 8 10 11 11 8 6 2 346 325 306 287 269 261 255 251 246 246 248 247 247 250 249 245 242 241 241 241 240 240 239 242 245 246 246 247 248 249 251 253 255
4 6 7 8 9 10 12 13 11 8 359 343 324 298 278 267 262 255 252 252 252 251 248 248 251 248 245 244 243 243 241 240 240 243 245 247 248 249 251 253 254 255 257
360 2 4 6 7 7 8 10 10 7 1 350 336 316 296 282 273 266 260 258 260 261 255 254 256 253 250 249 247 244 243 243 244 247 249 250 250 251 254 256 256 257 258
355 358 360 1 2 3 3 3 3 3 359 353 344 331 320 308 294 281 271 267 267 266 262 261 260 257 256 255 252 249 247 247 248 249 252 253 253 253 254 256 257 258 259
349 352 355 357 357 357 357 356 357 356 354 350 342 333 325 319 309 294 283 275 273 272 270 265 264 261 259 259 256 252 248 250 250 251 252 254 256 257 257 257 258 258 259
340 344 347 349 351 351 350 348 348 347 346 345 338 329 322 314 307 300 293 283 277 276 275 271 269 267 263 261 259 255 253 252 252 253 255 257 259 260 260 259 258 258 260
333 335 338 340 342 344 343 342 341 340 339 337 332 326 322 316 308 300 295 288 282 280 278 276 269 269 265 263 262 260 260 259 259 260 260 261 261 263 264 264 263 263 263
327 328 330 332 334 336 336 335 335 334 332 331 329 324 321 317 309 302 298 293 287 285 283 280 275 270 270 267 266 265 265 265 264 264 266 267 267 266 267 268 267 266 266
Height
5808 5807 5806 5805 5805 5805 5805 5806 5808 5810 5812 5815 5818 5821 5824 5828 5831 5834 5837 5840 5843 5846 5849 5852 5854 5857 5859 5861 5863 5865 5867 5869 5872 5874 5876 5878 5880 5882 5883 5885 5887 5889 5891
5804 5802 5801 5800 5799 5799 5800 5801 5802 5804 5806 5809 5812 5815 5819 5822 5826 5829 5832 5835 5839 5842 5845 5849 5851 5854 5857 5859 5861 5864 5866 5868 5870 5873 5875 5877 5879 5881 5883 5885 5887 5889 5891
5799 5797 5796 5795 5795 5794 5795 5795 5796 5798 5800 5803 5806 5809 5813 5816 5820 5824 5827 5831 5834 5838 5842 5845 5848 5851 5854 5856 5859 5862 5864 5867 5869 5871 5874 5876 5878 5880 5882 5884 5886 5888 5890
5795 5793 5791 5790 5790 5789 5790 5790 5791 5792 5794 5797 5800 5803 5807 5811 5815 5818 5822 5826 5830 5834 5838 5841 5845 5848 5851 5854 5857 5859 5862 5864 5867 5870 5872 5875 5877 5879 5881 5883 5885 5887 5889
5791 5788 5787 5786 5785 5785 5785 5785 5786 5787 5789 5791 5794 5798 5801 5805 5809 5813 5817 5821 5825 5829 5834 5837 5841 5844 5848 5851 5854 5856 5859 5862 5865 5867 5870 5873 5875 5877 5880 5882 5884 5886 5888
5788 5785 5783 5782 5781 5780 5780 5780 5781 5782 5784 5786 5789 5793 5796 5800 5804 5808 5812 5817 5821 5825 5829 5833 5837 5841 5844 5847 5851 5854 5856 5859 5862 5865 5867 5870 5873 5875 5877 5880 5882 5884 5886
5785 5782 5780 5779 5778 5777 5776 5776 5776 5778 5779 5782 5785 5788 5792 5795 5799 5803 5807 5812 5816 5820 5824 5829 5833 5836 5840 5843 5847 5850 5853 5856 5859 5862 5865 5867 5870 5873 5875 5877 5879 5881 5883
5784 5781 5778 5776 5775 5774 5773 5772 5773 5774 5775 5778 5780 5783 5787 5791 5794 5799 5803 5807 5811 5815 5820 5824 5828 5832 5836 5840 5843 5846 5849 5852 5855 5858 5861 5864 5867 5869 5872 5874 5876 5878 5880
5782 5779 5777 5774 5773 5771 5770 5770 5770 5771 5772 5774 5776 5780 5783 5786 5790 5794 5798 5802 5807 5811 5815 5818 5823 5828 5832 5835 5839 5842 5845 5848 5851 5854 5857 5860 5863 5866 5868 5870 5873 5875 5877
5781 5778 5775 5773 5771 5770 5768 5767 5767 5768 5769 5771 5773 5776 5779 5782 5786 5790 5794 5797 5801 5806 5810 5814 5819 5822 5826 5830 5834 5837 5841 5844 5847 5850 5853 5856 5859 5861 5864 5866 5869 5871 5873
5781 5777 5774 5772 5770 5768 5767 5766 5765 5765 5767 5768 5770 5773 5776 5779 5782 5786 5790 5793 5797 5801 5805 5809 5813 5817 5820 5824 5828 5832 5836 5839 5842 5845 5848 5851 5854 5857 5859 5862 5864 5866 5868
5780 5777 5773 5771 5768 5766 5765 5764 5763 5763 5764 5766 5768 5770 5773 5776 5779 5782 5786 5789 5793 5796 5800 5804 5808 5812 5814 5818 5823 5827 5830 5833 5837 5840 5843 5846 5849 5852 5854 5857 5859 5861 5863
5780 5776 5773 5770 5768 5766 5764 5763 5762 5762 5763 5764 5766 5768 5770 5773 5775 5778 5782 5785 5788 5792 5795 5799 5803 5806 5809 5813 5817 5821 5824 5827 5831 5834 5837 5840 5843 5846 5849 5851 5854 5856 5858
5780 5776 5772 5769 5767 5765 5764 5762 5762 5762 5762 5763 5764 5766 5768 5770 5772 5775 5778 5781 5785 5788 5791 5794 5797 5801 5804 5807 5811 5814 5818 5821 5824 5828 5831 5834 5837 5840 5843 5845 5848 5850 5852
5780 5776 5773 5770 5767 5765 5763 5762 5762 5761 5761 5762 5763 5764 5766 5767 5770 5772 5775 5778 5781 5784 5787 5789 5792 5795 5798 5801 5805 5808 5811 5815 5818 5821 5824 5827 5830 5833 5836 5839 5841 5843 5845
5781 5777 5773 5770 5768 5765 5764 5762 5761 5761 5761 5762 5762 5763 5765 5766 5767 5769 5772 5774 5777 5780 5782 5784 5786 5789 5792 5795 5798 5801 5804 5808 5811 5814 5817 5820 5823 5826 5829 5832 5834 5836 5838
5782 5778 5775 5771 5768 5766 5764 5763 5762 5761 5761 5761 5762 5763 5763 5764 5765 5767 5769 5771 5773 5776 5778 5780 5782 5784 5786 5789 5792 5795 5798 5801 5804 5807 5810 5814 5816 5819 5822 5824 5827 5829 5831
5782 5779 5776 5772 5770 5767 5765 5763 5762 5761 5761 5761 5762 5762 5762 5763 5764 5765 5767 5769 5770 5772 5774 5776 5777 5779 5781 5783 5786 5788 5791 5794 5797 5800 5803 5806 5809 5812 5815 5817 5819 5821 5823
5783 5780 5776 5773 5771 5768 5766 5764 5763 5762 5761 5761 5761 5761 5761 5762 5763 5764 5765 5767 5768 5769 5770 5772 5773 5774 5776 5778 5780 5782 5785 5788 5791 5793 5796 5799 5802 5805 5807 5809 5811 5813 5815
5784 5781 5778 5775 5772 5769 5767 5765 5763 5762 5761 5761 5760 5760 5761 5761 5761 5762 5763 5764 5765 5766 5767 5768 5769 5771 5772 5773 5775 5777 5780 5782 5785 5787 5790 5792 5794 5797 5799 5802 5804 5805 5807
5785 5782 5778 5775 5773 5770 5768 5766 5764 5763 5762 5761 5760 5760 5759 5760 5760 5760 5761 5761 5762 5763 5764 5765 5766 5766 5767 5768 5770 5772 5774 5776 5779 5781 5783 5786 5788 5790 5792 5794 5795 5797 5798
5785 5782 5779 5776 5773 5771 5769 5766 5765 5763 5762 5760 5760 5759 5759 5758 5758 5758 5759 5759 5760 5760 5761 5761 5762 5762 5763 5764 5765 5767 5769 5771 5773 5776 5777 5779 5780 5782 5784 5786 5787 5788 5790
5785 5782 5779 5776 5774 5771 5769 5767 5765 5763 5762 5760 5759 5758 5758 5757 5757 5756 5756 5756 5756 5757 5757 5758 5758 5758 5759 5760 5761 5762 5763 5765 5767 5769 5770 5772 5773 5775 5776 5777 5779 5780 5781
5784 5781 5779 5776 5774 5771 5769 5767 5765 5763 5762 5760 5759 5757 5757 5756 5755 5754 5754 5753 5753 5753 5753 5754 5754 5754 5755 5755 5756 5757 5758 5760 5762 5763 5764 5766 5767 5768 5768 5769 5770 5771 5772
5782 5780 5777 5775 5773 5770 5768 5766 5764 5762 5760 5759 5757 5756 5755 5753 5753 5752 5751 5750 5750 5750 5750 5750 5750 5750 5750 5751 5752 5753 5754 5755 5756 5757 5758 5759 5760 5761 5761 5761 5762 5762 5763
5780 5778 5775 5773 5771 5769 5767 5764 5762 5760 5759 5757 5755 5754 5752 5751 5750 5749 5748 5747 5747 5746 5746 5746 5746 5746 5746 5746 5747 5748 5748 5749 5750 5751 5751 5752 5752 5753 5753 5753 5753 5754 5754